Dewpoint
52 53 53 51 51 52 53 52 51 48 48 43 41 42 42 42 43 42 44 46 46 47 47 48 48 49 50 51 52 52 52 51 51 50 49 49 48 47
50 50 49 49 49 49 49 49 49 47 44 43 40 40 41 41 41 41 41 42 45 46 46 45 45 45 46 48 48 48 48 48 48 48 47 47 47 47
47 48 48 47 47 47 46 47 46 47 45 40 40 39 38 38 39 39 39 38 41 43 43 43 43 43 43 43 44 45 45 45 44 44 44 44 44 44
43 44 43 44 43 43 44 43 43 43 44 40 38 38 37 37 37 37 37 36 34 39 39 40 39 40 41 40 40 40 40 39 39 39 39 39 40 41
41 41 41 41 40 40 40 40 40 41 41 40 37 37 36 36 35 35 34 28 28 30 31 33 34 38 38 37 37 37 37 36 37 38 38 38 38 38
39 38 39 40 39 38 38 38 38 39 39 38 37 36 34 34 31 32 28 27 25 24 26 27 28 28 28 32 33 32 34 34 35 34 34 34 34 34
37 36 36 37 37 37 36 35 36 37 37 35 35 32 30 28 27 25 24 25 24 24 22 22 21 23 26 29 29 29 28 28 29 30 31 32 32 32
36 36 36 35 36 35 34 33 34 34 34 34 31 31 24 23 24 24 23 23 22 24 20 20 22 22 25 27 28 29 30 31 29 29 30 31 32 31
35 33 31 31 30 31 30 30 30 29 29 27 26 23 22 25 24 24 23 23 22 23 22 21 23 23 25 26 28 27 28 31 31 32 33 33 31 30
30 27 27 24 25 25 26 26 27 28 26 23 24 24 24 25 25 25 24 23 24 24 24 22 25 24 25 25 29 30 32 32 32 32 31 31 31 31
26 26 25 24 25 27 27 26 26 28 31 30 30 29 30 29 26 26 25 25 23 22 25 23 25 24 25 26 26 30 31 30 30 30 30 30 30 29
23 26 28 28 24 25 24 24 22 23 23 23 23 27 29 29 27 26 25 24 24 24 24 22 23 23 20 24 25 26 26 28 29 27 28 28 29 29
22 23 26 28 29 23 23 21 21 22 24 22 21 23 24 24 24 26 26 24 22 23 27 22 21 21 22 21 22 23 25 25 25 25 28 28 28 28
19 21 25 25 25 26 24 27 26 26 22 20 20 21 22 24 24 25 26 25 25 23 25 24 21 22 21 20 20 22 22 23 24 24 26 26 26 28
18 18 21 25 25 24 26 26 27 23 20 20 20 21 23 24 25 25 24 24 23 24 24 24 23 21 21 21 21 22 22 22 23 24 25 25 26 25
24 21 24 26 26 26 25 26 25 27 23 20 20 21 25 24 24 23 22 23 23 23 25 27 25 24 22 20 21 21 22 21 22 22 23 25 25 25
25 21 22 23 24 22 23 21 23 26 27 22 21 22 25 25 24 23 23 22 22 21 21 22 26 26 24 23 22 23 22 22 22 22 23 25 26 25
29 24 22 22 22 20 18 19 19 20 24 24 20 21 24 24 24 24 23 22 21 21 21 21 22 24 25 24 26 23 22 22 22 22 23 24 23 24
28 24 22 21 21 20 18 17 18 19 21 23 21 20 22 23 25 24 23 22 21 20 20 21 21 21 19 17 18 21 23 23 23 24 24 24 23 23
25 23 22 22 21 20 20 18 17 17 18 19 20 21 22 23 23 24 23 22 21 20 20 20 20 20 20 17 16 17 22 22 23 21 21 21 22 23
23 24 24 23 23 23 22 22 20 18 19 20 21 22 23 23 23 24 23 23 22 21 20 20 20 22 21 21 20 19 21 22 22 20 20 21 20 20
24 24 24 25 25 25 25 24 23 23 23 22 22 22 23 23 22 22 22 21 21 21 21 20 19 19 20 21 19 19 19 19 20 20 21 21 21 18
26 25 25 25 26 27 27 26 25 25 24 24 23 23 23 22 22 22 22 22 21 20 20 19 19 19 20 20 20 20 19 19 20 20 21 22 22 22
Wind_Speed
3 5 4 2 2 3 3 4 9 7 10 3 3 4 5 5 6 7 9 12 12 12 11 10 12 14 16 20 24 24 21 19 16 13 9 7 4 2
4 5 3 2 2 2 3 3 2 6 6 2 2 3 4 5 5 5 6 7 9 8 10 10 11 13 14 14 15 14 13 10 9 7 6 4 3 3
4 5 5 3 3 3 1 2 4 4 5 3 2 5 2 4 3 4 4 6 7 7 6 7 9 10 11 11 11 11 10 10 8 6 4 2 1 1
5 5 4 3 5 3 2 2 4 3 4 8 3 4 3 3 2 3 4 3 5 5 7 9 9 7 6 6 8 9 9 8 7 6 5 4 5 5
2 3 4 5 4 4 4 5 4 3 4 5 5 3 2 2 3 2 4 3 2 4 5 6 7 9 8 8 10 9 9 7 8 8 7 6 6 5
6 5 5 3 5 5 5 5 5 7 6 9 6 6 3 3 4 5 5 3 2 5 5 4 5 6 6 6 6 6 6 5 4 4 4 3 3 3
7 7 8 6 5 6 7 5 6 6 9 12 8 4 5 4 6 3 4 3 3 5 2 2 3 4 5 6 5 4 3 2 1 0 1 1 1 1
9 9 10 8 6 8 9 7 7 9 9 7 5 8 6 6 4 4 5 3 3 2 2 1 3 2 1 1 2 2 2 1 0 1 1 2 3 2
10 11 7 5 6 8 9 9 12 9 5 6 9 7 7 7 8 6 4 3 3 1 1 2 3 3 3 1 1 2 2 1 1 1 1 2 1 2
7 7 8 5 5 5 8 9 9 8 8 8 9 7 8 9 7 6 6 5 3 3 1 3 3 1 3 2 2 2 2 2 2 3 3 2 2 3
5 5 7 7 6 7 9 9 7 7 9 11 10 10 10 10 9 8 5 6 2 2 4 1 2 3 3 2 3 2 1 2 1 2 2 3 4 4
5 4 7 7 6 6 8 9 8 7 7 6 6 7 6 7 7 4 7 7 3 2 1 1 1 3 1 1 2 3 4 4 5 2 4 4 5 5
8 6 5 7 7 6 6 8 8 9 8 7 6 6 6 6 6 6 4 6 5 2 1 3 1 1 0 3 3 2 3 5 4 6 5 4 7 9
9 8 8 9 8 8 7 8 10 9 8 9 8 7 7 6 7 7 6 5 3 3 3 3 1 1 1 2 4 3 6 11 1 4 4 7 9 8
6 8 10 11 10 9 9 9 10 9 9 8 10 9 8 10 9 6 4 4 4 4 5 5 4 5 4 5 5 6 9 6 13 6 0 3 7 9
7 8 9 9 8 8 9 10 9 10 10 10 9 7 8 9 9 7 6 7 4 5 6 7 9 8 8 11 12 13 10 7 5 12 12 11 9 8
9 6 7 8 10 9 9 10 10 10 12 10 9 10 12 11 10 9 8 8 8 5 5 4 6 10 11 10 9 10 11 12 12 14 10 13 10 9
12 10 12 13 13 13 13 13 13 14 14 13 12 12 13 14 13 10 9 12 12 10 9 7 6 4 4 9 17 14 12 11 11 11 9 10 14 8
15 14 14 14 14 14 15 15 16 16 13 15 16 15 14 14 12 12 13 13 14 13 12 10 8 8 10 11 5 7 11 10 10 9 10 12 17 15
14 16 17 15 15 16 16 17 16 15 16 16 16 15 15 14 13 14 13 15 15 12 13 12 12 13 15 11 6 6 4 8 10 13 12 9 12 19
17 16 16 16 16 16 16 16 17 17 16 16 16 15 15 14 15 14 14 15 15 13 16 16 18 18 12 3 11 10 9 13 13 14 8 10 14 10
16 17 16 16 16 16 15 16 16 16 15 16 16 15 15 16 16 15 14 15 16 14 15 11 9 8 10 14 17 15 14 9 13 16 18 18 11 7
18 17 16 16 15 16 15 16 17 17 17 16 16 16 15 17 16 15 14 15 14 15 14 13 10 10 14 15 17 16 16 14 9 12 13 16 21 24
Wind_Direction
258 279 261 212 176 175 196 212 210 224 218 151 136 119 102 71 58 51 38 38 40 43 50 54 46 43 46 56 70 84 96 103 110 109 112 108 106 83
220 228 219 197 183 166 176 184 190 194 195 129 103 131 116 100 67 62 54 33 43 45 58 52 54 50 55 58 66 73 80 88 95 109 116 123 168 221
214 230 215 202 198 171 149 165 185 170 183 118 133 133 119 98 68 68 60 56 41 41 41 50 52 52 57 59 68 76 81 85 85 86 93 131 186 86
169 161 160 126 139 123 151 209 208 194 164 164 149 140 122 116 81 103 102 84 63 54 55 56 56 62 57 57 69 75 78 79 76 79 78 85 95 79
159 188 192 162 160 150 164 166 170 167 176 148 141 116 110 159 136 122 114 102 54 54 66 58 59 65 71 78 74 75 71 75 86 79 73 66 56 46
107 117 98 133 159 156 156 151 153 142 138 141 127 135 151 151 124 145 129 77 42 21 27 59 69 63 73 80 71 63 63 66 74 95 73 58 39 13
114 104 97 110 143 174 159 155 158 153 143 141 136 149 135 153 160 142 138 142 42 22 20 29 27 57 49 83 82 51 40 37 26 263 259 264 310 289
131 113 101 93 107 109 107 109 146 157 155 150 152 163 152 149 135 144 147 161 209 5 22 327 31 83 67 84 80 61 36 31 351 233 246 244 235 194
146 135 128 118 99 104 96 82 86 88 121 162 162 161 159 165 148 145 145 149 169 329 83 141 18 114 22 332 86 338 297 271 239 232 128 2 304 254
161 155 157 155 168 152 117 106 88 80 82 101 120 134 133 143 149 151 153 139 110 67 41 158 4 348 344 9 359 29 67 197 137 88 107 21 328 336
149 171 167 166 169 157 148 133 120 94 93 103 114 121 129 131 136 133 143 152 146 199 14 97 24 338 344 337 352 84 94 70 59 354 327 307 287 252
166 147 158 173 161 173 166 163 159 158 139 116 105 111 98 126 112 135 156 162 149 162 319 111 47 30 45 324 353 15 355 326 5 326 313 283 283 284
188 188 188 175 178 180 163 184 189 167 173 160 149 140 129 128 125 114 119 149 164 151 169 99 86 3 192 313 325 342 64 22 355 340 331 317 302 286
197 202 200 196 194 193 179 172 160 160 165 166 166 176 177 178 160 145 129 116 116 154 166 135 166 155 41 303 270 326 342 328 306 341 305 289 296 296
202 199 196 195 199 206 199 194 188 176 182 185 194 192 195 186 165 152 148 179 179 195 197 182 202 228 232 230 278 297 320 317 309 298 94 284 287 294
208 203 188 193 204 211 219 216 198 199 199 204 208 203 163 160 183 184 191 197 207 241 242 217 209 204 241 249 254 266 269 279 294 303 305 293 274 274
188 189 203 207 211 217 221 225 215 213 215 213 207 201 196 195 206 197 204 198 210 214 248 259 233 217 225 234 256 247 262 263 261 276 287 286 267 268
199 209 217 214 219 223 225 228 226 225 223 217 212 211 210 211 219 218 214 215 226 234 238 238 250 260 267 246 233 253 259 265 268 271 259 267 284 266
218 218 223 221 225 227 229 227 230 225 219 221 223 225 224 223 226 227 225 227 236 239 241 232 233 236 254 266 286 253 232 247 263 271 256 267 280 284
222 224 227 224 226 230 229 230 232 231 225 224 223 223 222 223 226 230 226 230 236 239 244 234 228 227 230 244 253 238 195 236 242 271 278 271 263 278
228 230 225 224 225 226 230 229 227 227 221 218 219 218 217 216 227 227 226 232 234 234 245 243 236 230 228 234 265 264 241 238 247 257 267 279 284 273
229 229 229 225 225 226 227 224 225 224 222 220 222 218 214 214 225 225 221 227 232 232 237 240 225 223 218 224 253 269 278 261 248 260 263 257 257 277
233 230 228 226 223 223 220 219 221 223 220 220 218 217 211 216 218 220 220 220 225 230 235 251 240 219 227 227 243 260 268 273 272 269 261 252 259 263